Weather History for Budapest Ferihegy, Hungary

Change the Weather History Date:

Saturday, May 18, 2013

  Actual Average Record
Temperature  
Mean Temperature 62 °F -  
Max Temperature 73 °F 73 °F 84 °F (2000)
Min Temperature 51 °F 51 °F 37 °F (2004)
Degree Days  
Heating Degree Days 3    
Growing Degree Days 12 (Base 50)    
Moisture  
Dew Point 52 °F    
Average Humidity 72    
Maximum Humidity 100    
Minimum Humidity 43    
Precipitation  
Precipitation 0.00 in - - ()
Sea Level Pressure  
Sea Level Pressure 29.89 in    
Wind  
Wind Speed 9 mph ()    
Max Wind Speed 16 mph    
Max Gust Speed 25 mph    
Visibility 6.2 miles    
Events Rain    
Averages and records for this station are not official NWS values.
T = Trace of Precipitation, MM = Missing Value Source: Averaged Metar Reports

Daily Weather History Graph

Daily Weather History Graph

Search for Another Location

Airport:

Trip Planner

Search our weather history database for the weather conditions in past years. The results will help you decide how hot, cold, wet, or windy it might be!

Date:

Astronomy

May. 18, 2013 Rise Set
Actual Time 5:02 AM CEST 8:16 PM CEST
Civil Twilight 4:25 AM CEST 8:54 PM CEST
Nautical Twilight 3:37 AM CEST 9:42 PM CEST
Astronomical Twilight 2:36 AM CEST 10:43 PM CEST
Moon 12:32 PM CEST (5/18) 1:16 AM CEST (5/18)
Length of Visible Light 16h 28m
Length of Day
15h 14m
First Quarter, 52% of the Moon is Illuminated
May 18
First Quarter
May 25
Full
May 31
Last Quarter
Jun 8
New
Jun 16
First Quarter

Hourly Weather History & Observations

Time (CEST) Temp. Dew Point Humidity Pressure Visibility Wind Dir Wind Speed Gust Speed Precip Events Conditions
12:00 AM 57.2 °F 57.2 °F 100% 29.68 in 6.2 mi North 10.4 mph - N/A Rain Light Rain Showers
12:30 AM 57.2 °F 55.4 °F 94% 29.74 in 6.2 mi SSE 9.2 mph - N/A   Scattered Clouds
1:00 AM 57.2 °F 55.4 °F 94% 29.77 in 6.2 mi SSW 8.1 mph - N/A   Scattered Clouds
1:30 AM 57.2 °F 57.2 °F 100% 29.80 in 6.2 mi South 6.9 mph - N/A   Mostly Cloudy
2:00 AM 57.2 °F 57.2 °F 100% 29.80 in 6.2 mi South 8.1 mph - N/A   Mostly Cloudy
2:30 AM 55.4 °F 55.4 °F 100% 29.77 in 6.2 mi SSE 9.2 mph - N/A   Mostly Cloudy
3:00 AM 55.4 °F 55.4 °F 100% 29.80 in 6.2 mi SSE 9.2 mph - N/A   Scattered Clouds
3:30 AM 55.4 °F 55.4 °F 100% 29.80 in 6.2 mi SSE 8.1 mph - N/A   Mostly Cloudy
4:00 AM 53.6 °F 53.6 °F 100% 29.80 in 6.2 mi SSE 6.9 mph - N/A   Partly Cloudy
4:30 AM 53.6 °F 53.6 °F 100% 29.80 in - SSE 5.8 mph - N/A   Clear
5:00 AM 53.6 °F 53.6 °F 100% 29.80 in - SSE 4.6 mph - N/A   Clear
5:30 AM 51.8 °F 50.0 °F 94% 29.83 in - SE 5.8 mph - N/A   Clear
6:00 AM 53.6 °F 53.6 °F 100% 29.83 in - SE 6.9 mph - N/A   Clear
6:30 AM 55.4 °F 53.6 °F 94% 29.83 in - SSE 5.8 mph - N/A   Clear
7:00 AM 57.2 °F 53.6 °F 88% 29.86 in - South 6.9 mph - N/A   Clear
7:30 AM 57.2 °F 53.6 °F 88% 29.86 in - South 9.2 mph - N/A   Clear
8:00 AM 59.0 °F 53.6 °F 82% 29.86 in - SSW 10.4 mph - N/A   Clear
8:30 AM 60.8 °F 51.8 °F 72% 29.89 in - SW 12.7 mph 25.3 mph N/A   Clear
9:00 AM 62.6 °F 51.8 °F 68% 29.89 in 6.2 mi SW 15.0 mph - N/A   Partly Cloudy
9:30 AM 64.4 °F 51.8 °F 64% 29.89 in 6.2 mi SW 16.1 mph - N/A   Partly Cloudy
10:00 AM 64.4 °F 50.0 °F 59% 29.89 in 6.2 mi WSW 16.1 mph - N/A   Partly Cloudy
10:30 AM 68.0 °F 51.8 °F 56% 29.92 in 6.2 mi SW 12.7 mph - N/A   Partly Cloudy
11:00 AM 66.2 °F 51.8 °F 60% 29.92 in 6.2 mi SW 16.1 mph - N/A   Partly Cloudy
11:30 AM 68.0 °F 51.8 °F 56% 29.92 in 6.2 mi SSW 15.0 mph - N/A   Partly Cloudy
12:00 PM 66.2 °F 51.8 °F 60% 29.92 in 6.2 mi SSW 12.7 mph - N/A   Partly Cloudy
12:30 PM 69.8 °F 53.6 °F 56% 29.92 in 6.2 mi SSW 13.8 mph - N/A   Partly Cloudy
1:00 PM 69.8 °F 51.8 °F 53% 29.95 in 6.2 mi SW 11.5 mph - N/A   Partly Cloudy
1:30 PM 69.8 °F 53.6 °F 56% 29.95 in 6.2 mi SSW 12.7 mph - N/A   Partly Cloudy
2:00 PM 71.6 °F 53.6 °F 53% 29.95 in 6.2 mi SW 13.8 mph - N/A   Partly Cloudy
2:30 PM 69.8 °F 50.0 °F 49% 29.95 in 6.2 mi SW 13.8 mph - N/A   Partly Cloudy
3:00 PM 73.4 °F 53.6 °F 50% 29.95 in - SSW 10.4 mph - N/A   Clear
3:30 PM 69.8 °F 50.0 °F 49% 29.95 in - SSW 12.7 mph - N/A   Clear
4:00 PM 71.6 °F 50.0 °F 46% 29.95 in - SSW 10.4 mph - N/A   Clear
4:30 PM 69.8 °F 48.2 °F 46% 29.95 in - SW 11.5 mph - N/A   Clear
5:00 PM 71.6 °F 48.2 °F 43% 29.95 in - SW 11.5 mph - N/A   Clear
5:30 PM 71.6 °F 48.2 °F 43% 29.95 in - SSW 10.4 mph - N/A   Clear
6:00 PM 71.6 °F 48.2 °F 43% 29.95 in - SSW 11.5 mph - N/A   Clear
6:30 PM 69.8 °F 48.2 °F 46% 29.95 in - SW 10.4 mph - N/A   Clear
7:00 PM 71.6 °F 48.2 °F 43% 29.95 in - SW 10.4 mph - N/A   Clear
7:30 PM 69.8 °F 48.2 °F 46% 29.95 in - SSW 6.9 mph - N/A   Clear
8:00 PM 68.0 °F 50.0 °F 52% 29.95 in - South 4.6 mph - N/A   Clear
8:30 PM 68.0 °F 50.0 °F 52% 29.95 in - South 4.6 mph - N/A   Clear
9:00 PM 60.8 °F 51.8 °F 72% 29.95 in - SE 4.6 mph - N/A   Clear
9:30 PM 59.0 °F 51.8 °F 77% 29.95 in - ESE 4.6 mph - N/A   Clear
10:00 PM 59.0 °F 51.8 °F 77% 29.95 in - Variable 3.5 mph - N/A   Clear
10:30 PM 57.2 °F 51.8 °F 82% 29.95 in - East 5.8 mph - N/A   Clear
11:00 PM 55.4 °F 51.8 °F 88% 29.95 in - ESE 4.6 mph - N/A   Clear
11:30 PM 57.2 °F 51.8 °F 82% 29.95 in - ESE 5.8 mph - N/A   Clear